OBJECT AZ, 62656

Orbit data source: Space-Track

You're viewing an Uncataloged Satellite

Recently launched and/or uncataloged satellites may have evolving metadata. Metadata may include but not limited to: Owner, Maufacturer, Bus, Motor, and Mission.

OBJECT AZ, 62656 is a satellite in SSO that was launched on Tue, 14 Jan 2025 UTC via an FALCON 9 launch vehicle from the Air Force Western Test Range (AFWTR). Unknown objects in Earth's orbit typically refer to objects detected orbiting the Earth but have not yet been identified or cataloged. These objects could be anything from previously untracked satellites, spent rocket stages, debris from satellite collisions, or even natural meteoroids temporarily captured by Earth's gravity.

Loading next visibility...
Identifier
62656, 2025-009AZ
Orbit
SSO
Country
Flag of TBDTBD
Related business
None
Manufacturer
Unknown
Mission
Operational Civil Technology
Bus & Motor
Unknown
Mass
Unknown
Launch date (UTC)
2025-01-14 (1 year ago)
Launch vehicle
FALCON 9
Launch site
Air Force Western Test Range (AFWTR)
Object type
Unknown
Shape & HBR
Box, 0.1 m
Radar Cross Section
0.035 m², Small (<0.1 m²)

Expand to show TLE details & history
Last TLE update: 9 hours ago

TLE from 9 hours ago
0 OBJECT AZ
1 62656U 25009AZ  26034.17315111  .00016985  00000-0  60087-3 0  9999
2 62656  97.4039 117.5960 0002413  97.3074 262.8440 15.29225283 58512
Epoch: 2026-02-03T04:09Z
TLE epoch observation values (Epoch: 2026-02-03T04:09:20.255Z)
Latitude
-0.00009°
Longitude
-78.09627°
Altitude
481.436 km
Speed
7.625 km/s
True Right ascension
07h 50m 23s
True Declination
0° 00' 00"
Sunlit
Object was in full shadow at epoch
Visualization orbit readout
Latitude
Unknown
Longitude
Unknown
Altitude
Unknown
Speed
Unknown
Apparent Right ascension
Unknown
Apparent Declination
Unknown
Sunlit
N/A
Visualization observer readout
Local Sidereal Time
14:58:29
Azimuth
Unknown
Elevation
Unknown
Doppler factor
Unknown
Orbital elements
Apogee altitude
476.734 km
Perigee altitude
473.427 km
Semi-major axis
6,853.217 km
Eccentricity
0.00024
Inclination
97.4039°
RAAN
117.596°
Arg. of periapsis
97.3074°
True anomaly
262.81657°
Mean anomaly
262.844°
Eccentric anomaly
262.83028°
Mean motion
3.82562 °/min
Orbital period
94.1 mins
BSTAR
0.00060087
Loading maneuver chart data...
Computing Atmospheric mass density...
Loading historical data...
Loading historical data...
Loading historical data...
Loading historical data...
Loading historical data...
Loading historical data...
Loading historical data...

Documentation

Showing up to 5 results
|